Regional Weather Roundup
Issued by NWS

Home | Current Version | Previous Version | Graphics & Text | Print | Product List | Glossary On
Versions: 1 2 3 4 5 6 7 8 9 10 11 12 13 14 15 16 17 18 19 20 21 22 23 24 25 26 27 28 29 30 31 32 33 34 35 36 37 38 39 40 41 42 43 44 45 46 47 48 49 50
000
ASUS43 KLOT 031012
RWRIL

ILLINOIS REGIONAL WEATHER ROUNDUP
NATIONAL WEATHER SERVICE CHICAGO/ROMEOVILLE IL
500 AM CDT FRI JUL 03 2015

NOTE: "FAIR" INDICATES FEW OR NO CLOUDS BELOW 12,000 FEET WITH NO
SIGNIFICANT WEATHER AND/OR OBSTRUCTIONS TO VISIBILITY.

* THESE STATIONS ARE NOT UNDER NWS QUALITY CONTROL. THEY ALSO MAY NOT
  REPORT WEATHER SUCH AS PRECIPITATION OR FOG.

ILZ001-002-007-009-015-016-024-031100-
NORTHWEST ILLINOIS

CITY           SKY/WX    TMP DP  RH WIND       PRES   REMARKS
MOLINE         CLOUDY    60  54  80 E6        29.96S
STERLING*      MOCLDY    55  52  88 NE3       29.96F
SAVANNA*       MOCLDY    56  54  92 N3        29.98S
$$

ILZ003-004-008-010-011-017-018-031100-
NORTH CENTRAL ILLINOIS

CITY           SKY/WX    TMP DP  RH WIND       PRES   REMARKS
ROCKFORD       CLOUDY    57  48  72 N5        29.99S
FREEPORT*      MOCLDY    52  51  95 CALM      30.00S
ROCHELLE*      CLOUDY    54  51  90 N5        29.97F
DE KALB*       CLOUDY    53  49  87 NE5       29.97F
PERU*          CLOUDY    57  52  83 NE7       29.95F
$$

ILZ005-006-012>014-019>023-031100-
NORTHEAST ILLINOIS

CITY           SKY/WX    TMP DP  RH WIND       PRES   REMARKS
CHICAGO-OHARE  CLOUDY    56  51  84 N5        29.96S
CHICAGO-MIDWAY CLOUDY    62  55  77 N5        29.95S
AURORA         CLOUDY    56  49  77 NE5       29.96F
LANSING*       CLOUDY    59  55  85 CALM      29.95F
JOLIET*        CLOUDY    59  54  81 N3        29.94F
WAUKEGAN       MOCLDY    51  50  96 N5        29.98R
DUPAGE AIRPORT CLOUDY    54  50  86 N6        29.96S
KANKAKEE*      CLOUDY    59  57  93 NE3       29.94S
WHEELING       CLOUDY    54  50  86 CALM      29.98S
MORRIS*        CLOUDY    56  52  85 N3        29.93S
ROMEOVILLE*    CLOUDY    56  52  84 NE3       29.95F
NORTHERLY ISL    N/A     61  56  83 E5          N/A
$$

LMZ740>746-031100-
SOUTHERN LAKE MICHIGAN

STATION/POSITION SKY/WX   TEMP    WIND        PRES    VSBY  WAVE
                          AIR SEA DIR/SP/G                  HT/PER
                          (F)     (DEG/KT/KT) (MB)    (MI)  (FT/S)
HARRISON CRIB              62      90/ 10/ 11   N/A
BURNHAM HARBOR             61      90/  3/  8   N/A
CALUMET HARBOR             62      60/  5/  6   N/A
BURNS HARBOR               60      70/  6/  8 1014.9F
MICHIGAN CITY              60     100/  7/ 10   N/A
MICHIGAN CITY 6N           61 63   90/  6/  8   N/A           2/ 5
ST. JOSEPH                 60 61                N/A           2/ 4
$$

ILZ025>027-034>036-040-047-049-050-058-095>099-031100-
WEST-CENTRAL ILLINOIS

CITY           SKY/WX    TMP DP  RH WIND       PRES   REMARKS
QUINCY         MOCLDY    63  60  90 NE5       29.92R
GALESBURG*     CLOUDY    59  56  89 NE3       29.94S
MACOMB*        CLOUDY    60  59  96 NE3       29.95S
JACKSONVILLE*  CLOUDY    64  61  90 NE5       29.90S
PITTSFIELD*    MOCLDY    64  61  91 CALM      29.92R
$$

ILZ028>032-037-038-041>044-048-051>054-059>061-031100-
CENTRAL ILLINOIS

CITY           SKY/WX    TMP DP  RH WIND       PRES   REMARKS
PONTIAC        CLOUDY    60  57  91 NE6       29.94R
BLOOMINGTON    CLOUDY    60  58  93 NE9       29.93S
DECATUR        MOCLDY    62  59  90 NE5       29.90S
PEORIA         LGT RAIN  63  56  78 NE8       29.92F
LACON*         CLOUDY    58  53  82 CALM      29.93F
LINCOLN*       CLOUDY    62  58  87 N5        29.92S
SPRINGFIELD    CLOUDY    64  60  87 NE7       29.90F
TAYLORVILLE    PTCLDY    61  59  94 N5        29.89S FOG
$$

ILZ033-039-045-046-055>057-062-063-031100-
EAST-CENTRAL ILLINOIS

CITY           SKY/WX    TMP DP  RH WIND       PRES   REMARKS
CHAMPAIGN      CLOUDY    64  59  83 NE7       29.90R
DANVILLE*      CLOUDY    62  59  90 E5        29.88R
RANTOUL*       DRIZZLE   64  61  89 NE7       29.91R
MATTOON        MOCLDY    63  61  93 CALM      29.87S
PARIS*         MOCLDY    65  62  92 NE5       29.89S
$$

ILZ079-100>102-031100-
SOUTHWEST ILLINOIS

CITY           SKY/WX    TMP DP  RH WIND       PRES   REMARKS
ALTON          MOCLDY    64  64 100 CALM      29.90S
BELLEVILLE     CLEAR     67  66  99 VRB3      29.87R
CAHOKIA*       CLOUDY    69  62  78 NW6       29.89R
SPARTA*        CLOUDY    67  63  85 NW5       29.89R
$$

ILZ064>066-069>071-074>076-080>082-084>086-088>090-092>094-031100-
SOUTH-CENTRAL ILLINOIS

CITY           SKY/WX    TMP DP  RH WIND       PRES   REMARKS
CARBONDALE     CLOUDY    69  66  90 MISG      29.87R
CAIRO*         CLOUDY    71  70  97 NW5       29.85R
EFFINGHAM*     MOCLDY    67  63  85 CALM      29.88S FOG
MARION         CLOUDY    70  68  94 CALM      29.87S
MT. VERNON     CLOUDY    68  63  83 CALM      29.87S
CENTRALIA*     MOCLDY    67  63  88 NW3       29.88R
SALEM*         CLOUDY    69  65  89 N5        29.88R
METROPOLIS*    CLOUDY    71  71 100 N5        29.85S
$$

ILZ067-068-072-073-078-083-087-091-031100-
SOUTHEAST ILLINOIS

CITY           SKY/WX    TMP DP  RH WIND       PRES   REMARKS
LAWRENCEVILLE  MOCLDY    70  67  90 NE6       29.85S FOG
FLORA*         MOCLDY    68  66  93 N5        29.86S FOG
FAIRFIELD*     CLOUDY    68  67  96 CALM      29.84S FOG
HARRISBURG*    CLOUDY    70  70  99 W5        29.86R
ROBINSON*      CLOUDY    69  66  90 NE6       29.86S
CARMI*         MOCLDY    70  65  82 NW5       29.84R HAZE
$$

ABBREVIATIONS USED IN REMARKS
   TC - TEMPERATURE IN CELSIUS
  WCI - WIND CHILL INDEX
   HX - HEAT INDEX
  VSB - VISIBILITY
$$




USA.gov is the U.S. government's official web portal to all federal, state and local government web resources and services.